Regional Weather Roundup
Issued by NWS

Home | Current Version | Previous Version | Text Only | Print | Product List | Glossary Off
Versions: 1 2 3 4 5 6 7 8 9 10 11 12 13 14 15 16 17 18 19 20 21 22 23 24 25 26 27 28 29 30 31 32 33 34 35 36 37 38 39 40 41 42 43 44 45 46 47 48 49 50

000
ASUS45 KSLC 040710
RWRUT

UTAH REGIONAL WEATHER ROUNDUP
NATIONAL WEATHER SERVICE SALT LAKE CITY UT
100 AM MDT SAT JUL 04 2015

UTZ001>011-023>025-040800-

NORTHERN UTAH

CITY           SKY/WX    TMP DP  RH WIND       PRES   REMARKS
BRIGHAM CITY   PTCLDY    77  50  38 CALM      29.93S
HILL AFB       MOCLDY    78  46  32 E12       29.96F
LOGAN          CLEAR     72  53  51 SE3       29.95R
OGDEN          PTCLDY    77  47  34 S9        29.93F
PROVO AIRPORT  MOCLDY    72  52  49 E7        29.96S
SALT LAKE CITY MOCLDY    83  47  28 SE7       29.91S
VERNAL         MOCLDY    79  42  26 CALM      30.00S
WENDOVER       CLOUDY    90  43  19 NW5       29.91F
HEBER CITY     PTCLDY    63  48  59 CALM      30.07S
WEST JORDAN    CLEAR     81  45  28 CALM      29.96S

$$

UTZ012>022-026-027-040800-

SOUTHERN/CENTRAL UTAH

CITY           SKY/WX    TMP DP  RH WIND       PRES   REMARKS
BLANDING       MOCLDY    67  50  53 CALM      30.22S
BRYCE CANYON   MOCLDY    61  51  70 W9        30.24F
CEDAR CITY     CLOUDY    77  46  33 S7        30.07S
DELTA          MOCLDY    80  41  25 S3        29.97S
HANKSVILLE     CLOUDY    86  43  22 NW16      29.98R
MILFORD        CLOUDY    77  47  34 S9        29.99F
MOAB/CYNLANDS  CLEAR     85  50  29 S9        29.94S
PRICE          PTCLDY    78  37  22 CALM      30.05S
ST GEORGE      MOSUNNY   88  52  29 SE7       29.86F
KANAB          CLOUDY    73  63  68 CALM      30.10R

$$

REGIONAL REPORTS     COLORADO/ARIZONA

CITY           SKY/WX    TMP DP  RH WIND       PRES   REMARKS
CRAIG, CO      CLEAR     59  45  59 CALM      30.09S
GRAND JUNCTION PTCLDY    78  50  37 S12       30.01R
RIFLE            N/A     66  55  67 NE13      30.09
MONTROSE       CLEAR     66  47  50 E5        30.13R
CORTEZ         PTCLDY    65  51  60 SE5       30.17R
PAGE, AZ       CLOUDY    84  51  31 SW12G20   29.99R
GRAND CANYON   CLOUDY    63  56  78 CALM      30.23F
KINGMAN        MOCLDY    84  47  27 CALM      29.95S
FLAGSTAFF      LGT RAIN  58  57  97 CALM      30.29F

$$

REGIONAL REPORTS    NEVADA/IDAHO/WYOMING

CITY           SKY/WX    TMP DP  RH WIND       PRES   REMARKS
LAS VEGAS, NV  CLOUDY    97  35  11 S14       29.74S HX  92
ELY            PTCLDY    61  48  62 SE9       30.12F
ELKO           PTCLDY    64  57  78 W6        30.04S
POCATELLO, ID  CLEAR     74  48  39 S8        29.94R
BURLEY         PTCLDY    70  52  52 SW6       29.91S
EVANSTON, WY   PTCLDY    69  42  37 S6        30.19S
ROCK SPRINGS   CLEAR     68  38  33 SW7       30.13S
KEMMERER       MOCLDY   N/A N/A N/A CALM      30.19F

$$



USA.gov is the U.S. government's official web portal to all federal, state and local government web resources and services.